Terminal Aerodrome Forecast
Issued by NWS Charleston, WV

Current Version | Previous Version | Text Only | Print | Product List | Glossary Off
Versions: 1 2 3 4 5 6 7 8 9 10 11 12 13 14 15 16 17 18 19 20 21 22 23

157
FTUS41 KRLX 230242 AAA
TAFBKW
TAF AMD
KBKW 230242Z 2303/2324 33006KT P6SM VCSH BKN050
     FM230400 34003KT P6SM BKN060
     FM230600 33002KT 5SM BR BKN035
     FM230900 00000KT 3SM BR BKN010
     FM231300 34003KT 5SM BR BKN015
     FM231400 35005KT P6SM BKN030
     FM231600 35007KT P6SM BKN040=

USA.gov is the U.S. government's official web portal to all federal, state and local government web resources and services.